DW2070 Weather Reports


Display with metric or nautical units.
time (UTC)temp
F
wind
direction
speed
MPH
gust
MPH
rain 1hr
in
rain 24hr
in
rain mn
in
humidity
%
barometer
mb
20260902095003 58 75 2.0 4.0 0.00 0.00 0.00 85 1015.8
20260902094024 58 73 2.0 5.0 0.00 0.00 0.00 85 1015.9
20260902092003 58 74 2.0 5.0 0.00 0.00 0.00 85 1015.9
20260902091003 58 77 2.0 5.0 0.00 0.00 0.00 85 1015.9
20260902090004 58 79 3.0 6.0 0.00 0.00 0.00 85 1016.0
20260902085003 59 69 3.0 5.0 0.00 0.00 0.00 85 1016.1
20260902083003 59 69 2.0 6.0 0.00 0.00 0.00 84 1016.1
20260902082003 59 69 2.0 5.0 0.00 0.00 0.00 84 1016.1
20260902081003 59 82 2.0 5.0 0.00 0.00 0.00 83 1016.1
20260902080024 59 87 1.0 4.0 0.00 0.00 0.00 83 1016.0
20260902075003 60 87 1.0 4.0 0.00 0.00 0.00 83 1016.0
20260902074024 60 87 1.0 3.0 0.00 0.00 0.00 82 1016.1
20260902073003 60 87 2.0 3.0 0.00 0.00 0.00 82 1016.1
20260902072026 60 0 2.0 2.0 0.00 0.00 0.00 81 1016.0
20260902071006 61 0 1.0 1.0 0.00 0.00 0.00 81 1015.9
20260902070028 61 0 0.0 1.0 0.00 0.00 0.00 81 1016.0
20260902065005 61 0 0.0 2.0 0.00 0.00 0.00 81 1015.9
20260902064027 62 0 0.0 2.0 0.00 0.00 0.00 80 1016.0
20260902063006 62 0 0.0 2.0 0.00 0.00 0.00 80 1015.8
20260902062005 62 61 0.0 2.0 0.00 0.00 0.00 80 1015.7
20260902060026 63 61 2.0 3.0 0.00 0.00 0.00 80 1015.5
20260902055005 63 60 2.0 5.0 0.00 0.00 0.00 80 1015.4
20260902054006 63 342 2.0 4.0 0.00 0.00 0.00 79 1015.4
20260902053027 64 331 1.0 3.0 0.00 0.00 0.00 79 1015.5
20260902052006 64 331 1.0 4.0 0.00 0.00 0.00 78 1015.6
20260902050008 65 0 0.0 2.0 0.00 0.00 0.00 78 1015.4
20260902045005 66 0 0.0 0.0 0.00 0.00 0.00 77 1015.4
20260902044006 66 0 0.0 0.0 0.00 0.00 0.00 77 1015.3
20260902043006 67 0 0.0 0.0 0.00 0.00 0.00 77 1015.1
20260902042026 67 257 0.0 3.0 0.00 0.00 0.00 76 1015.1
20260902041026 67 257 1.0 3.0 0.00 0.00 0.00 75 1015.0
20260902035005 68 258 1.0 2.0 0.00 0.00 0.00 73 1014.9
20260902034005 68 260 1.0 4.0 0.00 0.00 0.00 72 1014.8
20260902032005 69 260 2.0 4.0 0.00 0.00 0.00 70 1014.8
20260902031005 69 263 2.0 5.0 0.00 0.00 0.00 69 1014.6
20260902030005 70 265 3.0 7.0 0.00 0.00 0.00 68 1014.5
20260902025005 70 270 2.0 7.0 0.00 0.00 0.00 68 1014.4
20260902024005 71 262 2.0 6.0 0.00 0.00 0.00 68 1014.4
20260902023005 71 259 3.0 9.0 0.00 0.00 0.00 67 1014.3
20260902022005 72 259 3.0 7.0 0.00 0.00 0.00 66 1014.4
20260902021005 73 259 3.0 8.0 0.00 0.00 0.00 64 1014.4
20260902020005 73 251 3.0 9.0 0.00 0.00 0.00 63 1014.5
20260902014005 75 247 3.0 8.0 0.00 0.00 0.00 57 1014.4
20260902013005 76 256 4.0 9.0 0.00 0.00 0.00 56 1014.3
20260902012005 77 270 3.0 8.0 0.00 0.00 0.00 54 1014.3
20260902011006 77 275 4.0 10.0 0.00 0.00 0.00 54 1014.2
20260902005005 79 262 3.0 7.0 0.00 0.00 0.00 49 1014.4
20260902004026 79 264 4.0 8.0 0.00 0.00 0.00 49 1014.4
20260902003005 79 267 3.0 11.0 0.00 0.00 0.00 49 1014.4
20260902002005 79 283 3.0 8.0 0.00 0.00 0.00 48 1014.5
20260902001005 78 258 5.0 9.0 0.00 0.00 0.00 50 1014.6
20260902000005 78 248 5.0 11.0 0.00 0.00 0.00 50 1014.6
20260901235005 79 250 4.0 12.0 0.00 0.00 0.00 51 1014.6
20260901234005 79 262 5.0 11.0 0.00 0.00 0.00 52 1014.7
20260901233005 79 261 5.0 14.0 0.00 0.00 0.00 53 1014.7
20260901232005 79 266 5.0 11.0 0.00 0.00 0.00 52 1014.8
20260901231005 80 259 4.0 11.0 0.00 0.00 0.00 52 1014.8
20260901230005 80 256 5.0 9.0 0.00 0.00 0.00 53 1015.0
20260901225005 79 244 6.0 11.0 0.00 0.00 0.00 54 1015.1
20260901224026 80 260 5.0 13.0 0.00 0.00 0.00 55 1015.0
20260901223006 80 253 6.0 14.0 0.00 0.00 0.00 53 1015.3
20260901222005 80 243 5.0 12.0 0.00 0.00 0.00 53 1015.3
20260901221026 80 266 5.0 12.0 0.00 0.00 0.00 54 1015.2
20260901220005 80 262 5.0 13.0 0.00 0.00 0.00 54 1015.2
20260901215005 79 240 6.0 13.0 0.00 0.00 0.00 55 1015.3
20260901214005 79 243 6.0 12.0 0.00 0.00 0.00 56 1015.3
20260901213005 79 237 5.0 12.0 0.00 0.00 0.00 57 1015.3
20260901212005 80 251 6.0 15.0 0.00 0.00 0.00 56 1015.4
20260901211005 79 247 5.0 14.0 0.00 0.00 0.00 58 1015.4
20260901210005 79 237 6.0 12.0 0.00 0.00 0.00 59 1015.5
20260901205005 78 234 6.0 13.0 0.00 0.00 0.00 59 1015.5
20260901204026 78 251 5.0 12.0 0.00 0.00 0.00 59 1015.6
20260901203026 79 254 5.0 10.0 0.00 0.00 0.00 58 1015.6
20260901202005 79 241 4.0 9.0 0.00 0.00 0.00 58 1015.7
20260901201005 78 253 6.0 14.0 0.00 0.00 0.00 59 1015.6
20260901200005 78 257 6.0 11.0 0.00 0.00 0.00 58 1015.7
20260901195005 78 244 6.0 11.0 0.00 0.00 0.00 59 1016.1
20260901194005 79 251 6.0 13.0 0.00 0.00 0.00 58 1016.2
20260901193005 79 247 5.0 13.0 0.00 0.00 0.00 56 1016.1
20260901192005 79 247 6.0 13.0 0.00 0.00 0.00 57 1016.1
20260901190005 79 312 4.0 9.0 0.00 0.00 0.00 57 1016.2
20260901184005 79 255 3.0 9.0 0.00 0.00 0.00 57 1016.2
20260901183005 78 248 3.0 8.0 0.00 0.00 0.00 57 1016.2
20260901182026 77 250 3.0 8.0 0.00 0.00 0.00 59 1016.1
20260901181005 77 266 3.0 6.0 0.00 0.00 0.00 60 1016.1
20260901180005 76 252 2.0 7.0 0.00 0.00 0.00 61 1016.1
20260901175005 77 265 1.0 5.0 0.00 0.00 0.00 60 1016.0
20260901174006 76 246 2.0 5.0 0.00 0.00 0.00 64 1016.0
20260901173026 75 248 2.0 4.0 0.00 0.00 0.00 64 1015.8
20260901172005 74 254 2.0 7.0 0.00 0.00 0.00 64 1015.9
20260901171005 74 160 1.0 4.0 0.00 0.00 0.00 66 1016.1
20260901170005 74 149 1.0 3.0 0.00 0.00 0.00 67 1016.2
20260901165005 73 119 1.0 4.0 0.00 0.00 0.00 69 1016.2
20260901164005 72 39 2.0 4.0 0.00 0.00 0.00 72 1016.1
20260901163005 71 22 1.0 4.0 0.00 0.00 0.00 74 1016.3
20260901162005 68 17 1.0 4.0 0.00 0.00 0.00 78 1016.4
20260901160005 64 27 1.0 4.0 0.00 0.00 0.00 84 1016.4
20260901155005 64 46 1.0 3.0 0.00 0.00 0.00 86 1016.3
20260901154004 63 47 2.0 3.0 0.00 0.00 0.00 87 1016.2
20260901153004 63 48 2.0 5.0 0.00 0.00 0.00 88 1016.1
20260901152004 63 65 3.0 5.0 0.00 0.00 0.00 88 1016.0
20260901151004 62 71 2.0 6.0 0.00 0.00 0.00 89 1015.8
20260901150025 62 43 2.0 5.0 0.00 0.00 0.00 89 1015.9
20260901145005 61 82 1.0 4.0 0.00 0.00 0.00 89 1015.9
20260901144004 61 82 1.0 3.0 0.00 0.00 0.00 89 1015.7
20260901143005 61 83 2.0 3.0 0.00 0.00 0.00 89 1015.7
20260901142025 61 70 2.0 5.0 0.00 0.00 0.00 89 1015.4
20260901141004 61 64 1.0 5.0 0.00 0.00 0.00 89 1015.4
20260901140004 61 64 2.0 5.0 0.00 0.00 0.00 89 1015.2
20260901134005 60 64 2.0 4.0 0.00 0.00 0.00 89 1014.8
20260901133026 60 64 1.0 4.0 0.00 0.00 0.00 88 1014.8
20260901132005 60 64 1.0 3.0 0.00 0.00 0.00 88 1014.7
20260901131004 60 64 2.0 3.0 0.00 0.00 0.00 88 1014.6
20260901130005 60 64 2.0 5.0 0.00 0.00 0.00 88 1014.7
20260901125004 60 65 3.0 6.0 0.00 0.00 0.00 87 1014.7
20260901124004 60 68 3.0 5.0 0.00 0.00 0.00 87 1014.8
20260901123004 60 66 2.0 5.0 0.00 0.00 0.00 87 1014.8
20260901122004 60 66 2.0 5.0 0.00 0.00 0.00 87 1014.8
20260901121025 61 66 2.0 5.0 0.00 0.00 0.00 88 1014.9
20260901115004 60 66 2.0 5.0 0.00 0.00 0.00 88 1014.8
20260901114004 60 66 1.0 4.0 0.00 0.00 0.00 88 1014.8
20260901113004 60 66 2.0 4.0 0.00 0.00 0.00 87 1014.8
20260901112004 60 66 1.0 4.0 0.00 0.00 0.00 87 1014.8
20260901111004 59 65 0.0 3.0 0.00 0.00 0.00 88 1014.8
20260901110004 58 65 2.0 4.0 0.00 0.00 0.00 87 1014.9
20260901105004 58 65 1.0 3.0 0.00 0.00 0.00 87 1014.9
20260901104004 58 65 1.0 4.0 0.00 0.00 0.00 87 1014.9
20260901103004 58 65 2.0 5.0 0.00 0.00 0.00 86 1014.7
20260901102004 58 66 3.0 4.0 0.00 0.00 0.00 86 1014.7
20260901101004 58 66 2.0 5.0 0.00 0.00 0.00 86 1014.7
20260901100004 58 66 2.0 5.0 0.00 0.00 0.00 86 1014.6